User: anonymous   Login
Location: Clermont
(50.2608°N, 4.3172°E)
Time: 09:07:56
(UTC+00:00)
Language:

Meteor 2-9 Rocket - Orbit

View from above orbital plane
View from above orbital plane
View from above satellite
View from above satellite

Ground track
Ground track

The orbit data is extracted from the following two-line orbital elements,

1 13719U 82116B   20293.38703284 -.00000019 +00000-0 -16587-4 0  9993
2 13719 081.2541 244.9743 0072463 111.6526 000.6865 14.14658461952888
Epoch (UTC): 19 October 2020 09:17:19
Eccentricity: 0.0072463
inclination: 81.2541°
perigee height: 791 km
apogee height: 896 km
right ascension of ascending node: 244.9743°
argument of perigee: 111.6526°
revolutions per day: 14.14658461
mean anomaly at epoch: 0.6865°
orbit number at epoch: 95288

The dashed part of the orbit path shows where the satellite is in the earth's shadow,  

DLR